Estación meteorológica de Calldetenes (Osona, Plana de Vic)

Consulta los datos en tiempo real de la estación meteorológica de Calldetenes





Hora UTC 02:15
Temperatura 21.7 ºC
Suelo 15 cm 21.7 ºC
Humedad 82.3 %
Presión 1022.1 hPa
Pluja 0.0 mm
Velocidad viento 3.7 km/h
Dirección viento SW
Radiación solar 0.1 W/m²

Webcam

Datos diarios 2026-09-01



Hora UTC (invierno +1h; verano +2h)
Temperatura (ºC) Humedad (%) Presión (hPa) Velocidad viento (km/h) Precipitación (mm) Radiación solar (W/m²)
Hora UTC Aire Suelo 15 cm Humedad Presión Vel. Dir. Vel. Max Dir. Intent. máx 5 min. Rad. Sol.
00:05 20.0 20.0 83.2 1022.3 0.5 S 0.5 S 0.0 0.1
00:10 19.8 19.8 84.2 1022.3 1.9 SSE 3.5 SSE 0.0 0.1
00:15 19.5 19.6 85.0 1022.3 2.0 ESE 6.7 SE 0.0 0.1
00:20 19.2 19.4 86.0 1022.3 5.1 ESE 7.4 ESE 0.0 0.1
00:25 19.1 19.3 87.3 1022.3 4.3 SE 6.4 SE 0.0 0.1
00:30 19.1 19.2 88.2 1022.3 2.0 ESE 4.2 ESE 0.0 0.1
00:35 19.2 19.3 88.3 1022.2 2.8 E 4.2 ESE 0.0 0.1
00:40 19.4 19.4 88.7 1022.2 2.3 ESE 4.2 ESE 0.0 0.1
00:45 19.7 19.7 88.3 1022.2 2.8 ESE 4.6 E 0.0 0.1
00:50 19.8 19.9 87.3 1022.2 2.5 ESE 3.9 ESE 0.0 0.1
00:55 19.9 20.1 87.2 1022.2 2.7 ESE 4.6 ESE 0.0 0.1
01:00 20.1 20.3 86.7 1022.2 3.0 SE 4.9 SSE 0.0 0.1
01:05 20.2 20.4 86.9 1022.2 2.7 S 5.6 S 0.0 0.1
01:10 20.7 20.6 86.8 1022.2 3.4 SSW 5.3 S 0.0 0.1
01:15 21.1 20.9 84.7 1022.1 2.7 S 5.3 S 0.0 0.1
01:20 21.1 21.1 83.7 1022.1 0.0 NNE 0.0 SSW 0.0 0.1
01:25 21.0 21.2 83.8 1022.1 0.8 W 2.8 WNW 0.0 0.1
01:30 21.0 21.1 84.3 1022.1 1.3 WSW 4.2 WSW 0.0 0.1
01:35 21.1 21.2 84.5 1022.1 2.8 WSW 4.6 WSW 0.0 0.1
01:40 21.2 21.2 84.2 1022.1 2.3 WSW 3.9 WSW 0.0 0.1
01:45 21.2 21.3 83.8 1022.1 2.3 SW 3.9 SW 0.0 0.1
01:50 21.3 21.4 83.5 1022.1 2.8 SW 4.2 SW 0.0 0.1
01:55 21.3 21.4 83.1 1022.1 2.7 SW 6.7 S 0.0 0.1
02:00 21.5 21.5 82.8 1022.1 3.0 SW 6.0 SSW 0.0 0.1
02:05 21.6 21.6 82.2 1022.1 4.1 SW 7.1 SW 0.0 0.1
02:10 21.6 21.6 82.4 1022.1 3.3 SSW 6.4 SW 0.0 0.1
02:15 21.7 21.7 82.3 1022.1 3.7 SW 5.6 SSW 0.0 0.1
Máxima 21.7 21.7 88.7 1022.3 5.1 ESE 7.4 ESE 0.0 0.1
Mínima 19.1 19.2 82.2 1022.1
Total 0.0